Time,TemperatureF,DewpointF,PressureIn,WindDirection,WindDirectionDegrees,WindSpeedMPH,WindSpeedGustMPH,Humidity,HourlyPrecipIn,Conditions,Clouds,dailyrainin,SoftwareType,DateUTC
2014-08-29 06:18:00,56.2,54.5,29.80,WNW,294,3.0,3.0,94,0.00,,,0.00,Wunderground v.1.15,2014-08-29 11:18:00,
2014-08-29 06:25:00,56.3,54.3,29.80,WNW,297,5.0,6.0,93,0.00,,,0.00,Wunderground v.1.15,2014-08-29 11:25:00,
2014-08-29 06:30:00,56.3,54.3,29.80,WNW,290,4.0,4.0,93,0.00,,,0.00,Wunderground v.1.15,2014-08-29 11:30:00,
2014-08-29 06:35:00,56.3,54.3,29.80,WNW,286,4.0,5.0,93,0.00,,,0.00,Wunderground v.1.15,2014-08-29 11:35:00,
2014-08-29 06:41:00,56.2,54.2,29.80,WNW,289,4.0,4.0,93,0.00,,,0.00,Wunderground v.1.15,2014-08-29 11:41:00,
2014-08-29 06:46:00,56.1,54.1,29.80,WNW,286,4.0,4.0,93,0.00,,,0.00,Wunderground v.1.15,2014-08-29 11:46:00,
2014-08-29 06:50:00,56.0,54.0,29.81,WNW,286,3.0,3.0,93,0.00,,,0.00,Wunderground v.1.15,2014-08-29 11:50:00,
2014-08-29 06:55:00,55.7,53.7,29.81,WNW,286,2.0,3.0,93,0.00,,,0.00,Wunderground v.1.15,2014-08-29 11:55:00,
2014-08-29 07:00:00,55.5,53.5,29.81,WNW,286,2.0,2.0,93,0.00,,,0.00,Wunderground v.1.15,2014-08-29 12:00:00,
2014-08-29 07:05:00,55.5,53.5,29.81,WNW,285,3.0,3.0,93,0.00,,,0.00,Wunderground v.1.15,2014-08-29 12:05:00,
2014-08-29 07:10:00,55.7,53.7,29.81,WNW,292,3.0,8.0,93,0.00,,,0.00,Wunderground v.1.15,2014-08-29 12:10:00,
2014-08-29 07:16:00,55.8,53.8,29.81,WNW,292,3.0,8.0,93,0.00,,,0.00,Wunderground v.1.15,2014-08-29 12:16:00,
2014-08-29 07:21:00,55.7,53.7,29.81,WNW,291,3.0,3.0,93,0.00,,,0.00,Wunderground v.1.15,2014-08-29 12:21:00,
2014-08-29 07:26:00,55.5,53.5,29.81,WNW,291,3.0,8.0,93,0.00,,,0.00,Wunderground v.1.15,2014-08-29 12:26:00,
2014-08-29 07:35:00,55.2,53.2,29.81,WNW,291,3.0,8.0,93,0.00,,,0.00,Wunderground v.1.15,2014-08-29 12:35:00,
2014-08-29 07:40:00,55.2,53.2,29.81,WNW,291,3.0,8.0,93,0.00,,,0.00,Wunderground v.1.15,2014-08-29 12:40:00,
2014-08-29 07:45:00,55.5,53.8,29.81,WNW,291,2.0,8.0,94,0.00,,,0.00,Wunderground v.1.15,2014-08-29 12:45:00,
2014-08-29 07:50:00,55.8,53.8,29.81,WNW,291,2.0,2.0,93,0.00,,,0.00,Wunderground v.1.15,2014-08-29 12:50:00,
2014-08-29 07:56:00,56.1,54.1,29.81,WNW,291,1.0,8.0,93,0.00,,,0.00,Wunderground v.1.15,2014-08-29 12:56:00,
2014-08-29 08:01:00,56.7,55.0,29.82,WNW,293,1.0,8.0,94,0.00,,,0.00,Wunderground v.1.15,2014-08-29 13:01:00,
2014-08-29 08:05:00,57.2,55.2,29.82,WNW,290,2.0,8.0,93,0.00,,,0.00,Wunderground v.1.15,2014-08-29 13:05:00,
2014-08-29 08:10:00,57.8,55.8,29.82,WNW,296,4.0,4.0,93,0.00,,,0.00,Wunderground v.1.15,2014-08-29 13:10:00,
2014-08-29 08:15:00,58.3,56.0,29.82,WNW,293,5.0,5.0,92,0.00,,,0.00,Wunderground v.1.15,2014-08-29 13:15:00,
2014-08-29 08:20:00,58.8,56.2,29.82,WNW,291,5.0,8.0,91,0.00,,,0.00,Wunderground v.1.15,2014-08-29 13:20:00,
2014-08-29 08:25:00,59.2,56.3,29.82,WNW,288,5.0,8.0,90,0.00,,,0.00,Wunderground v.1.15,2014-08-29 13:25:00,
2014-08-29 08:30:00,59.7,56.5,29.82,WNW,293,4.0,4.0,89,0.00,,,0.00,Wunderground v.1.15,2014-08-29 13:30:00,
2014-08-29 08:36:00,60.2,56.9,29.82,WNW,294,3.0,8.0,89,0.00,,,0.00,Wunderground v.1.15,2014-08-29 13:36:00,
2014-08-29 08:41:00,60.6,56.7,29.83,West,279,3.0,8.0,87,0.00,,,0.00,Wunderground v.1.15,2014-08-29 13:41:00,
2014-08-29 08:45:00,61.0,56.8,29.82,WNW,284,4.0,8.0,86,0.00,,,0.00,Wunderground v.1.15,2014-08-29 13:45:00,
2014-08-29 08:50:00,61.4,57.2,29.82,WNW,286,4.0,4.0,86,0.00,,,0.00,Wunderground v.1.15,2014-08-29 13:50:00,
2014-08-29 08:55:00,61.9,57.7,29.82,West,261,4.0,7.0,86,0.00,,,0.00,Wunderground v.1.15,2014-08-29 13:55:00,
2014-08-29 09:00:00,62.5,57.6,29.82,WNW,299,4.0,8.0,84,0.00,,,0.00,Wunderground v.1.15,2014-08-29 14:00:00,
2014-08-29 09:05:00,63.1,57.5,29.82,NW,306,4.0,8.0,82,0.00,,,0.00,Wunderground v.1.15,2014-08-29 14:05:00,
2014-08-29 09:11:00,63.4,57.5,29.82,West,279,5.0,8.0,81,0.00,,,0.00,Wunderground v.1.15,2014-08-29 14:11:00,
2014-08-29 09:16:00,63.7,57.8,29.82,WNW,291,5.0,8.0,81,0.00,,,0.00,Wunderground v.1.15,2014-08-29 14:16:00,
2014-08-29 09:21:00,64.0,57.7,29.82,NW,304,5.0,8.0,80,0.00,,,0.00,Wunderground v.1.15,2014-08-29 14:21:00,
2014-08-29 09:26:00,64.5,58.2,29.82,NW,307,5.0,8.0,80,0.00,,,0.00,Wunderground v.1.15,2014-08-29 14:26:00,
2014-08-29 09:30:00,65.0,58.3,29.82,WNW,298,3.0,3.0,79,0.00,,,0.00,Wunderground v.1.15,2014-08-29 14:30:00,
2014-08-29 09:35:00,65.6,57.8,29.82,NW,311,4.0,4.0,76,0.00,,,0.00,Wunderground v.1.15,2014-08-29 14:35:00,
2014-08-29 09:40:00,66.2,58.0,29.82,WNW,298,5.0,5.0,75,0.00,,,0.00,Wunderground v.1.15,2014-08-29 14:40:00,
2014-08-29 09:45:00,66.7,57.4,29.82,WNW,303,5.0,8.0,72,0.00,,,0.00,Wunderground v.1.15,2014-08-29 14:45:00,
2014-08-29 09:51:00,67.1,58.2,29.82,WNW,301,6.0,6.0,73,0.00,,,0.00,Wunderground v.1.15,2014-08-29 14:51:00,
2014-08-29 09:56:00,67.7,58.3,29.82,NW,309,5.0,8.0,72,0.00,,,0.00,Wunderground v.1.15,2014-08-29 14:56:00,
2014-08-29 10:00:00,68.2,58.8,29.82,WNW,294,5.0,8.0,72,0.00,,,0.00,Wunderground v.1.15,2014-08-29 15:00:00,
2014-08-29 10:06:00,68.6,58.0,29.82,WNW,296,6.0,8.0,69,0.00,,,0.00,Wunderground v.1.15,2014-08-29 15:06:00,
2014-08-29 10:10:00,68.9,57.5,29.82,NW,309,6.0,8.0,67,0.00,,,0.00,Wunderground v.1.15,2014-08-29 15:10:00,
2014-08-29 10:15:00,69.4,58.8,29.81,NNW,334,6.0,8.0,69,0.00,,,0.00,Wunderground v.1.15,2014-08-29 15:15:00,
2014-08-29 10:20:00,69.9,58.0,29.82,NW,321,6.0,6.0,66,0.00,,,0.00,Wunderground v.1.15,2014-08-29 15:20:00,
2014-08-29 10:26:00,70.5,58.2,29.81,NNW,348,5.0,8.0,65,0.00,,,0.00,Wunderground v.1.15,2014-08-29 15:26:00,
2014-08-29 10:31:00,70.9,56.8,29.82,NW,322,5.0,8.0,61,0.00,,,0.00,Wunderground v.1.15,2014-08-29 15:31:00,
2014-08-29 10:36:00,71.1,57.9,29.82,NNW,330,6.0,8.0,63,0.00,,,0.00,Wunderground v.1.15,2014-08-29 15:36:00,
2014-08-29 10:41:00,71.7,58.4,29.82,NW,319,5.0,8.0,63,0.00,,,0.00,Wunderground v.1.15,2014-08-29 15:41:00,
2014-08-29 10:50:00,72.3,58.1,29.82,North,350,6.0,8.0,61,0.00,,,0.00,Wunderground v.1.15,2014-08-29 15:50:00,
2014-08-29 10:55:00,72.6,57.4,29.82,NW,323,6.0,8.0,59,0.00,,,0.00,Wunderground v.1.15,2014-08-29 15:55:00,
2014-08-29 11:00:00,72.9,57.3,29.82,WNW,294,7.0,7.0,58,0.00,,,0.00,Wunderground v.1.15,2014-08-29 16:00:00,
2014-08-29 11:10:00,73.3,57.1,29.82,NW,318,7.0,7.0,57,0.00,,,0.00,Wunderground v.1.15,2014-08-29 16:10:00,
2014-08-29 11:15:00,73.5,57.8,29.81,WNW,293,7.0,8.0,58,0.00,,,0.00,Wunderground v.1.15,2014-08-29 16:15:00,
2014-08-29 11:20:00,73.7,57.5,29.81,NW,319,8.0,8.0,57,0.00,,,0.00,Wunderground v.1.15,2014-08-29 16:20:00,
2014-08-29 11:25:00,74.1,57.4,29.81,NW,313,7.0,8.0,56,0.00,,,0.00,Wunderground v.1.15,2014-08-29 16:25:00,
2014-08-29 11:31:00,74.4,58.2,29.81,NNW,348,7.0,7.0,57,0.00,,,0.00,Wunderground v.1.15,2014-08-29 16:31:00,
2014-08-29 11:36:00,74.6,57.9,29.81,NNW,338,8.0,8.0,56,0.00,,,0.00,Wunderground v.1.15,2014-08-29 16:36:00,
2014-08-29 11:40:00,74.8,57.5,29.81,NNW,343,8.0,8.0,55,0.00,,,0.00,Wunderground v.1.15,2014-08-29 16:40:00,
2014-08-29 11:45:00,75.1,57.3,29.81,North,350,8.0,8.0,54,0.00,,,0.00,Wunderground v.1.15,2014-08-29 16:45:00,
2014-08-29 11:50:00,75.5,58.7,29.81,NNW,346,7.0,8.0,56,0.00,,,0.00,Wunderground v.1.15,2014-08-29 16:50:00,
2014-08-29 11:55:00,76.1,58.8,29.81,NW,325,6.0,8.0,55,0.00,,,0.00,Wunderground v.1.15,2014-08-29 16:55:00,
2014-08-29 12:00:00,76.3,56.8,29.81,NNW,330,7.0,8.0,51,0.00,,,0.00,Wunderground v.1.15,2014-08-29 17:00:00,
2014-08-29 12:06:00,76.5,57.6,29.81,NNE,15,7.0,8.0,52,0.00,,,0.00,Wunderground v.1.15,2014-08-29 17:06:00,
2014-08-29 12:11:00,76.7,57.7,29.81,NW,322,7.0,9.0,52,0.00,,,0.00,Wunderground v.1.15,2014-08-29 17:11:00,
2014-08-29 12:16:00,77.1,57.0,29.80,WNW,302,7.0,9.0,50,0.00,,,0.00,Wunderground v.1.15,2014-08-29 17:16:00,
2014-08-29 12:20:00,77.3,58.3,29.80,NNW,340,7.0,7.0,52,0.00,,,0.00,Wunderground v.1.15,2014-08-29 17:20:00,
2014-08-29 12:25:00,77.5,56.8,29.80,North,355,7.0,8.0,49,0.00,,,0.00,Wunderground v.1.15,2014-08-29 17:25:00,
2014-08-29 12:30:00,77.9,57.8,29.80,NW,315,7.0,8.0,50,0.00,,,0.00,Wunderground v.1.15,2014-08-29 17:30:00,
2014-08-29 12:35:00,78.1,57.9,29.80,NW,315,7.0,8.0,50,0.00,,,0.00,Wunderground v.1.15,2014-08-29 17:35:00,
2014-08-29 12:40:00,78.2,56.3,29.80,North,355,6.0,8.0,47,0.00,,,0.00,Wunderground v.1.15,2014-08-29 17:40:00,
2014-08-29 12:46:00,78.8,56.9,29.80,NNW,343,6.0,8.0,47,0.00,,,0.00,Wunderground v.1.15,2014-08-29 17:46:00,
2014-08-29 12:51:00,79.5,58.7,29.80,NNW,346,5.0,5.0,49,0.00,,,0.00,Wunderground v.1.15,2014-08-29 17:51:00,
2014-08-29 12:56:00,79.5,57.5,29.79,NW,324,5.0,8.0,47,0.00,,,0.00,Wunderground v.1.15,2014-08-29 17:56:00,
2014-08-29 13:01:00,79.9,56.7,29.79,NNW,346,5.0,5.0,45,0.00,,,0.00,Wunderground v.1.15,2014-08-29 18:01:00,
2014-08-29 13:05:00,80.2,56.3,29.79,NNW,340,5.0,7.0,44,0.00,,,0.00,Wunderground v.1.15,2014-08-29 18:05:00,
2014-08-29 13:10:00,80.2,55.0,29.79,NW,323,7.0,8.0,42,0.00,,,0.00,Wunderground v.1.15,2014-08-29 18:10:00,
2014-08-29 13:15:00,80.4,55.9,29.79,NNW,333,7.0,8.0,43,0.00,,,0.00,Wunderground v.1.15,2014-08-29 18:15:00,
2014-08-29 13:21:00,80.7,58.0,29.79,NNW,327,6.0,8.0,46,0.00,,,0.00,Wunderground v.1.15,2014-08-29 18:21:00,
2014-08-29 13:26:00,80.3,55.1,29.79,NNW,333,8.0,8.0,42,0.00,,,0.00,Wunderground v.1.15,2014-08-29 18:26:00,
2014-08-29 13:31:00,80.0,55.5,29.79,NW,304,8.0,11.0,43,0.00,,,0.00,Wunderground v.1.15,2014-08-29 18:31:00,
2014-08-29 13:36:00,80.2,55.7,29.79,NW,307,8.0,11.0,43,0.00,,,0.00,Wunderground v.1.15,2014-08-29 18:36:00,
2014-08-29 13:41:00,80.4,54.5,29.79,NNW,334,8.0,8.0,41,0.00,,,0.00,Wunderground v.1.15,2014-08-29 18:41:00,
2014-08-29 13:45:00,80.5,54.6,29.79,NNW,334,7.0,10.0,41,0.00,,,0.00,Wunderground v.1.15,2014-08-29 18:45:00,
2014-08-29 13:50:00,80.8,54.9,29.79,NNW,338,8.0,8.0,41,0.00,,,0.00,Wunderground v.1.15,2014-08-29 18:50:00,
2014-08-29 13:55:00,81.5,55.5,29.79,North,360,8.0,8.0,41,0.00,,,0.00,Wunderground v.1.15,2014-08-29 18:55:00,
2014-08-29 14:01:00,81.9,54.5,29.79,NE,42,7.0,7.0,39,0.00,,,0.00,Wunderground v.1.15,2014-08-29 19:01:00,
2014-08-29 14:06:00,81.9,53.1,29.79,WNW,298,7.0,8.0,37,0.00,,,0.00,Wunderground v.1.15,2014-08-29 19:06:00,
2014-08-29 14:11:00,81.9,53.8,29.79,NNE,17,7.0,7.0,38,0.00,,,0.00,Wunderground v.1.15,2014-08-29 19:11:00,
2014-08-29 14:16:00,82.2,54.1,29.78,NNW,346,7.0,8.0,38,0.00,,,0.00,Wunderground v.1.15,2014-08-29 19:16:00,
2014-08-29 14:20:00,82.1,54.7,29.78,NW,318,7.0,9.0,39,0.00,,,0.00,Wunderground v.1.15,2014-08-29 19:20:00,
2014-08-29 14:25:00,82.4,54.2,29.78,NNW,332,8.0,9.0,38,0.00,,,0.00,Wunderground v.1.15,2014-08-29 19:25:00,
2014-08-29 14:30:00,82.4,54.2,29.78,NE,35,8.0,8.0,38,0.00,,,0.00,Wunderground v.1.15,2014-08-29 19:30:00,
2014-08-29 14:35:00,83.0,54.0,29.78,North,360,7.0,8.0,37,0.00,,,0.00,Wunderground v.1.15,2014-08-29 19:35:00,
2014-08-29 14:40:00,83.2,53.5,29.78,NNE,14,5.0,5.0,36,0.00,,,0.00,Wunderground v.1.15,2014-08-29 19:40:00,
2014-08-29 14:46:00,83.8,55.5,29.78,NNW,346,4.0,8.0,38,0.00,,,0.00,Wunderground v.1.15,2014-08-29 19:46:00,
2014-08-29 14:51:00,84.0,54.2,29.78,North,355,5.0,8.0,36,0.00,,,0.00,Wunderground v.1.15,2014-08-29 19:51:00,
2014-08-29 14:56:00,84.2,53.6,29.78,NNE,12,6.0,8.0,35,0.00,,,0.00,Wunderground v.1.15,2014-08-29 19:56:00,
2014-08-29 15:00:00,84.2,53.6,29.78,NNE,32,6.0,6.0,35,0.00,,,0.00,Wunderground v.1.15,2014-08-29 20:00:00,
2014-08-29 15:05:00,83.9,55.6,29.77,North,351,6.0,9.0,38,0.00,,,0.00,Wunderground v.1.15,2014-08-29 20:05:00,
2014-08-29 15:10:00,83.6,54.6,29.77,NNE,17,7.0,7.0,37,0.00,,,0.00,Wunderground v.1.15,2014-08-29 20:10:00,
2014-08-29 15:15:00,84.0,52.6,29.77,North,355,6.0,8.0,34,0.00,,,0.00,Wunderground v.1.15,2014-08-29 20:15:00,
2014-08-29 15:20:00,84.0,52.6,29.77,NNE,13,5.0,5.0,34,0.00,,,0.00,Wunderground v.1.15,2014-08-29 20:20:00,
2014-08-29 15:26:00,84.3,53.7,29.77,NNE,31,5.0,8.0,35,0.00,,,0.00,Wunderground v.1.15,2014-08-29 20:26:00,
2014-08-29 15:31:00,84.3,53.7,29.76,NNW,338,6.0,11.0,35,0.00,,,0.00,Wunderground v.1.15,2014-08-29 20:31:00,
2014-08-29 15:36:00,83.9,52.5,29.76,NW,318,8.0,11.0,34,0.00,,,0.00,Wunderground v.1.15,2014-08-29 20:36:00,
2014-08-29 15:40:00,83.6,55.3,29.76,NW,309,9.0,15.0,38,0.00,,,0.00,Wunderground v.1.15,2014-08-29 20:40:00,
2014-08-29 15:45:00,83.6,53.8,29.76,NNW,327,9.0,15.0,36,0.00,,,0.00,Wunderground v.1.15,2014-08-29 20:45:00,
2014-08-29 15:50:00,84.2,55.8,29.76,NNW,336,7.0,10.0,38,0.00,,,0.00,Wunderground v.1.15,2014-08-29 20:50:00,
2014-08-29 15:55:00,84.3,54.4,29.76,NW,323,6.0,10.0,36,0.00,,,0.00,Wunderground v.1.15,2014-08-29 20:55:00,
2014-08-29 16:01:00,84.6,53.9,29.76,ENE,58,6.0,6.0,35,0.00,,,0.00,Wunderground v.1.15,2014-08-29 21:01:00,
2014-08-29 16:06:00,84.6,53.9,29.76,NNW,330,6.0,8.0,35,0.00,,,0.00,Wunderground v.1.15,2014-08-29 21:06:00,
2014-08-29 16:11:00,84.3,52.1,29.76,North,360,7.0,7.0,33,0.00,,,0.00,Wunderground v.1.15,2014-08-29 21:11:00,
2014-08-29 16:15:00,83.5,53.0,29.76,North,355,7.0,8.0,35,0.00,,,0.00,Wunderground v.1.15,2014-08-29 21:15:00,
2014-08-29 16:20:00,83.3,52.0,29.76,North,355,7.0,9.0,34,0.00,,,0.00,Wunderground v.1.15,2014-08-29 21:20:00,
2014-08-29 16:25:00,84.2,53.6,29.76,North,360,7.0,9.0,35,0.00,,,0.00,Wunderground v.1.15,2014-08-29 21:25:00,
2014-08-29 16:30:00,84.6,53.1,29.76,NNW,336,7.0,7.0,34,0.00,,,0.00,Wunderground v.1.15,2014-08-29 21:30:00,
2014-08-29 16:35:00,85.1,53.6,29.76,North,355,8.0,12.0,34,0.00,,,0.00,Wunderground v.1.15,2014-08-29 21:35:00,
2014-08-29 16:41:00,85.6,52.4,29.76,North,350,8.0,9.0,32,0.00,,,0.00,Wunderground v.1.15,2014-08-29 21:41:00,
2014-08-29 16:46:00,84.7,50.7,29.76,North,360,8.0,9.0,31,0.00,,,0.00,Wunderground v.1.15,2014-08-29 21:46:00,
2014-08-29 16:51:00,84.9,51.7,29.76,North,355,7.0,7.0,32,0.00,,,0.00,Wunderground v.1.15,2014-08-29 21:51:00,
2014-08-29 17:00:00,85.5,51.4,29.76,North,5,6.0,8.0,31,0.00,,,0.00,Wunderground v.1.15,2014-08-29 22:00:00,
2014-08-29 17:05:00,85.3,52.1,29.76,NE,34,8.0,8.0,32,0.00,,,0.00,Wunderground v.1.15,2014-08-29 22:05:00,
2014-08-29 17:10:00,85.3,51.2,29.76,NNE,16,7.0,8.0,31,0.00,,,0.00,Wunderground v.1.15,2014-08-29 22:10:00,
2014-08-29 17:15:00,85.3,51.2,29.77,North,355,7.0,8.0,31,0.00,,,0.00,Wunderground v.1.15,2014-08-29 22:15:00,
2014-08-29 17:21:00,85.4,52.2,29.77,NNE,19,6.0,8.0,32,0.00,,,0.00,Wunderground v.1.15,2014-08-29 22:21:00,
2014-08-29 17:26:00,85.2,50.3,29.77,NNW,345,6.0,8.0,30,0.00,,,0.00,Wunderground v.1.15,2014-08-29 22:26:00,
2014-08-29 17:31:00,84.6,50.6,29.77,NNE,24,8.0,8.0,31,0.00,,,0.00,Wunderground v.1.15,2014-08-29 22:31:00,
2014-08-29 17:36:00,84.6,51.5,29.77,NNW,341,7.0,8.0,32,0.00,,,0.00,Wunderground v.1.15,2014-08-29 22:36:00,
2014-08-29 17:40:00,84.4,51.3,29.77,NNE,27,5.0,5.0,32,0.00,,,0.00,Wunderground v.1.15,2014-08-29 22:40:00,
2014-08-29 17:45:00,84.1,51.1,29.77,NE,36,6.0,6.0,32,0.00,,,0.00,Wunderground v.1.15,2014-08-29 22:45:00,
2014-08-29 17:50:00,83.9,50.9,29.77,NNE,33,6.0,8.0,32,0.00,,,0.00,Wunderground v.1.15,2014-08-29 22:50:00,
2014-08-29 17:56:00,83.9,50.9,29.77,North,5,6.0,8.0,32,0.00,,,0.00,Wunderground v.1.15,2014-08-29 22:56:00,
2014-08-29 18:01:00,84.3,52.1,29.77,NNE,23,5.0,8.0,33,0.00,,,0.00,Wunderground v.1.15,2014-08-29 23:01:00,
2014-08-29 18:06:00,84.7,51.6,29.77,NNW,344,5.0,8.0,32,0.00,,,0.00,Wunderground v.1.15,2014-08-29 23:06:00,
2014-08-29 18:11:00,84.4,53.0,29.77,ENE,59,6.0,6.0,34,0.00,,,0.00,Wunderground v.1.15,2014-08-29 23:11:00,
2014-08-29 18:16:00,83.9,54.1,29.78,NE,51,5.0,8.0,36,0.00,,,0.00,Wunderground v.1.15,2014-08-29 23:16:00,
2014-08-29 18:21:00,83.6,53.1,29.78,North,5,5.0,5.0,35,0.00,,,0.00,Wunderground v.1.15,2014-08-29 23:21:00,
2014-08-29 18:26:00,83.6,53.8,29.78,NNE,23,5.0,8.0,36,0.00,,,0.00,Wunderground v.1.15,2014-08-29 23:26:00,
2014-08-29 18:31:00,84.0,51.8,29.78,NE,35,2.0,2.0,33,0.00,,,0.00,Wunderground v.1.15,2014-08-29 23:31:00,
2014-08-29 18:35:00,84.0,52.6,29.78,NNE,32,2.0,8.0,34,0.00,,,0.00,Wunderground v.1.15,2014-08-29 23:35:00,
2014-08-29 18:40:00,83.8,53.2,29.78,ENE,63,3.0,8.0,35,0.00,,,0.00,Wunderground v.1.15,2014-08-29 23:40:00,
2014-08-29 18:45:00,83.4,52.9,29.78,North,350,4.0,8.0,35,0.00,,,0.00,Wunderground v.1.15,2014-08-29 23:45:00,
2014-08-29 18:50:00,83.7,53.1,29.78,North,355,4.0,4.0,35,0.00,,,0.00,Wunderground v.1.15,2014-08-29 23:50:00,
2014-08-29 18:55:00,84.0,54.2,29.78,North,355,2.0,8.0,36,0.00,,,0.00,Wunderground v.1.15,2014-08-29 23:55:00,
2014-08-29 19:01:00,83.5,53.0,29.78,ENE,67,2.0,8.0,35,0.00,,,0.00,Wunderground v.1.15,2014-08-30 00:01:00,
2014-08-29 19:06:00,82.9,52.4,29.78,ENE,65,3.0,8.0,35,0.00,,,0.00,Wunderground v.1.15,2014-08-30 00:06:00,
2014-08-29 19:11:00,82.5,54.3,29.78,ENE,63,3.0,3.0,38,0.00,,,0.00,Wunderground v.1.15,2014-08-30 00:11:00,
2014-08-29 19:15:00,82.2,53.3,29.78,ENE,63,2.0,8.0,37,0.00,,,0.00,Wunderground v.1.15,2014-08-30 00:15:00,
2014-08-29 19:20:00,82.1,55.4,29.78,ENE,63,1.0,1.0,40,0.00,,,0.00,Wunderground v.1.15,2014-08-30 00:20:00,
2014-08-29 19:25:00,81.8,55.1,29.78,ENE,63,1.0,2.0,40,0.00,,,0.00,Wunderground v.1.15,2014-08-30 00:25:00,
2014-08-29 19:30:00,81.3,54.7,29.78,ENE,63,2.0,2.0,40,0.00,,,0.00,Wunderground v.1.15,2014-08-30 00:30:00,
2014-08-29 19:36:00,80.8,54.9,29.78,ENE,63,2.0,8.0,41,0.00,,,0.00,Wunderground v.1.15,2014-08-30 00:36:00,
2014-08-29 19:41:00,80.3,55.8,29.78,ENE,62,2.0,8.0,43,0.00,,,0.00,Wunderground v.1.15,2014-08-30 00:41:00,
2014-08-29 19:46:00,79.8,57.2,29.78,ENE,62,2.0,8.0,46,0.00,,,0.00,Wunderground v.1.15,2014-08-30 00:46:00,
2014-08-29 19:51:00,79.2,56.6,29.78,ENE,62,1.0,1.0,46,0.00,,,0.00,Wunderground v.1.15,2014-08-30 00:51:00,
2014-08-29 19:56:00,78.8,56.3,29.79,ENE,63,0.0,8.0,46,0.00,,,0.00,Wunderground v.1.15,2014-08-30 00:56:00,
2014-08-29 20:00:00,78.4,55.3,29.79,ENE,63,0.0,8.0,45,0.00,,,0.00,Wunderground v.1.15,2014-08-30 01:00:00,
2014-08-29 20:05:00,78.2,56.9,29.79,ENE,62,0.0,8.0,48,0.00,,,0.00,Wunderground v.1.15,2014-08-30 01:05:00,
2014-08-29 20:10:00,77.9,57.8,29.79,ENE,63,0.0,8.0,50,0.00,,,0.00,Wunderground v.1.15,2014-08-30 01:10:00,
2014-08-29 20:16:00,77.4,57.9,29.79,ENE,63,0.0,8.0,51,0.00,,,0.00,Wunderground v.1.15,2014-08-30 01:16:00,
2014-08-29 20:21:00,76.5,58.1,29.79,ENE,63,0.0,8.0,53,0.00,,,0.00,Wunderground v.1.15,2014-08-30 01:21:00,
2014-08-29 20:26:00,75.7,59.4,29.79,ENE,63,0.0,8.0,57,0.00,,,0.00,Wunderground v.1.15,2014-08-30 01:26:00,
2014-08-29 20:31:00,75.1,60.7,29.79,ENE,63,0.0,8.0,61,0.00,,,0.00,Wunderground v.1.15,2014-08-30 01:31:00,
2014-08-29 20:36:00,74.4,59.6,29.80,ENE,63,0.0,8.0,60,0.00,,,0.00,Wunderground v.1.15,2014-08-30 01:36:00,
2014-08-29 20:40:00,73.5,60.1,29.80,ENE,63,0.0,8.0,63,0.00,,,0.00,Wunderground v.1.15,2014-08-30 01:40:00,
2014-08-29 20:45:00,72.7,60.7,29.80,ENE,63,0.0,8.0,66,0.00,,,0.00,Wunderground v.1.15,2014-08-30 01:45:00,
2014-08-29 20:50:00,71.3,59.4,29.80,ENE,63,0.0,8.0,66,0.00,,,0.00,Wunderground v.1.15,2014-08-30 01:50:00,
2014-08-29 20:56:00,71.0,58.2,29.81,ENE,63,0.0,8.0,64,0.00,,,0.00,Wunderground v.1.15,2014-08-30 01:56:00,
2014-08-29 21:01:00,70.7,58.8,29.81,ENE,63,0.0,8.0,66,0.00,,,0.00,Wunderground v.1.15,2014-08-30 02:01:00,
2014-08-29 21:06:00,69.8,57.9,29.81,ENE,63,0.0,8.0,66,0.00,,,0.00,Wunderground v.1.15,2014-08-30 02:06:00,
2014-08-29 21:11:00,69.5,58.9,29.81,ENE,63,0.0,8.0,69,0.00,,,0.00,Wunderground v.1.15,2014-08-30 02:11:00,
2014-08-29 21:15:00,68.8,58.2,29.82,ENE,63,0.0,8.0,69,0.00,,,0.00,Wunderground v.1.15,2014-08-30 02:15:00,
2014-08-29 21:20:00,68.6,58.0,29.82,ENE,63,0.0,8.0,69,0.00,,,0.00,Wunderground v.1.15,2014-08-30 02:20:00,
2014-08-29 21:25:00,68.4,58.6,29.82,ENE,63,0.0,8.0,71,0.00,,,0.00,Wunderground v.1.15,2014-08-30 02:25:00,
2014-08-29 21:31:00,67.9,58.5,29.82,ENE,63,0.0,8.0,72,0.00,,,0.00,Wunderground v.1.15,2014-08-30 02:31:00,
2014-08-29 21:36:00,67.7,58.3,29.83,ENE,63,0.0,8.0,72,0.00,,,0.00,Wunderground v.1.15,2014-08-30 02:36:00,
2014-08-29 21:41:00,67.3,58.3,29.83,ENE,63,0.0,8.0,73,0.00,,,0.00,Wunderground v.1.15,2014-08-30 02:41:00,
2014-08-29 21:46:00,67.1,58.2,29.83,ENE,63,0.0,8.0,73,0.00,,,0.00,Wunderground v.1.15,2014-08-30 02:46:00,
2014-08-29 21:51:00,67.1,58.9,29.83,ENE,63,0.0,8.0,75,0.00,,,0.00,Wunderground v.1.15,2014-08-30 02:51:00,
2014-08-29 21:55:00,66.6,58.8,29.83,ENE,63,0.0,8.0,76,0.00,,,0.00,Wunderground v.1.15,2014-08-30 02:55:00,
2014-08-29 22:00:00,66.3,58.9,29.84,ENE,63,0.0,8.0,77,0.00,,,0.00,Wunderground v.1.15,2014-08-30 03:00:00,
2014-08-29 22:05:00,65.6,58.9,29.84,ENE,63,0.0,8.0,79,0.00,,,0.00,Wunderground v.1.15,2014-08-30 03:05:00,
2014-08-29 22:11:00,65.4,58.7,29.84,ENE,63,0.0,8.0,79,0.00,,,0.00,Wunderground v.1.15,2014-08-30 03:11:00,
2014-08-29 22:16:00,65.7,58.3,29.84,ENE,63,0.0,8.0,77,0.00,,,0.00,Wunderground v.1.15,2014-08-30 03:16:00,
2014-08-29 22:21:00,65.9,57.7,29.84,ENE,63,0.0,8.0,75,0.00,,,0.00,Wunderground v.1.15,2014-08-30 03:21:00,
2014-08-29 22:26:00,66.0,58.2,29.84,ENE,63,0.0,8.0,76,0.00,,,0.00,Wunderground v.1.15,2014-08-30 03:26:00,
2014-08-29 22:31:00,65.9,58.8,29.84,ENE,63,0.0,8.0,78,0.00,,,0.00,Wunderground v.1.15,2014-08-30 03:31:00,
2014-08-29 22:35:00,65.4,58.7,29.85,ENE,63,0.0,8.0,79,0.00,,,0.00,Wunderground v.1.15,2014-08-30 03:35:00,
2014-08-29 22:40:00,64.9,57.9,29.85,ENE,63,0.0,8.0,78,0.00,,,0.00,Wunderground v.1.15,2014-08-30 03:40:00,
2014-08-29 22:45:00,64.9,58.2,29.85,ENE,63,0.0,8.0,79,0.00,,,0.00,Wunderground v.1.15,2014-08-30 03:45:00,
2014-08-29 22:50:00,64.7,58.7,29.85,ENE,62,0.0,8.0,81,0.00,,,0.00,Wunderground v.1.15,2014-08-30 03:50:00,
2014-08-29 22:56:00,63.8,58.5,29.85,ENE,59,2.0,8.0,83,0.00,,,0.00,Wunderground v.1.15,2014-08-30 03:56:00,
2014-08-29 23:01:00,63.4,58.8,29.86,ENE,58,3.0,8.0,85,0.00,,,0.00,Wunderground v.1.15,2014-08-30 04:01:00,
2014-08-29 23:06:00,63.2,58.6,29.86,ENE,58,2.0,8.0,85,0.00,,,0.00,Wunderground v.1.15,2014-08-30 04:06:00,
2014-08-29 23:10:00,63.2,58.9,29.86,ENE,58,2.0,2.0,86,0.00,,,0.00,Wunderground v.1.15,2014-08-30 04:10:00,
2014-08-29 23:15:00,62.9,58.6,29.86,ENE,58,2.0,4.0,86,0.00,,,0.00,Wunderground v.1.15,2014-08-30 04:15:00,
2014-08-29 23:20:00,62.7,58.8,29.86,WNW,290,4.0,8.0,87,0.00,,,0.00,Wunderground v.1.15,2014-08-30 04:20:00,